This demonstration page uses our WeatherBlox Daily Observations layout. Learn more.

Left ArrowRight Arrow

Hourly Observations for October 15, 2018

Temp ( °F °C ) Dew Point ( °F °C ) Humidity (%) Winds ( mph kmh ) Pressure ( in mb ) Visibility ( mi km ) Precip ( " mm )
12:51 am 00:51 Clear 54 12.2 53 11.7 97 97 Calm 29.90 1013 10 16 0.00 0.00
1:51 am 01:51 Mostly Cloudy 54 12.2 53 11.7 97 97 Calm 29.91 1013 10 16 0.00 0.00
2:51 am 02:51 Cloudy 54 12.2 54 12.2 100 100 SSE 5 7 29.91 1013 10 16 0.00 0.00
3:51 am 03:51 Mostly Cloudy 54 12.2 54 12.2 100 100 Calm 29.91 1013 10 16 0.00 0.00
4:51 am 04:51 Mostly Clear 54 12.2 54 12.2 100 100 SW 3 6 29.91 1013 10 16 0.00 0.00
5:51 am 05:51 Mostly Cloudy 52 11.1 52 11.1 100 100 Calm 29.93 1014 10 16 0.00 0.00
6:51 am 06:51 Cloudy 53 11.7 53 11.7 100 100 Calm 29.95 1014 10 16 0.00 0.00
7:51 am 07:51 Cloudy 57 13.9 53 11.7 87 87 Calm 29.96 1015 10 16 0.00 0.00
8:51 am 08:51 Cloudy 57 13.9 52 11.1 83 83 Calm 29.98 1015 10 16 0.00 0.00
9:51 am 09:51 Cloudy with Light Rain 56 13.3 52 11.1 87 87 SW 8 13 30.00 1016 4 6 0.02 0.51
10:22 am 10:22 Cloudy with Rain 54 12 52 11 94 94 Calm 30.06 1018 2 3 0.00 0.00
10:32 am 10:32 Cloudy with Light Rain 54 12.2 53 11.7 97 97 Calm 30.06 1018 3 5 0.05 1.27
10:51 am 10:51 Cloudy with Light Rain 55 12.8 54 12.2 96 96 Calm 30.01 1016 6 10 0.06 1.52
11:51 am 11:51 Cloudy 59 15 53 11.7 81 81 E 6 9 29.99 1016 10 16 0.01 0.25
12:51 pm 12:51 Partly Cloudy 64 17.8 53 11.7 68 68 ESE 8 13 29.96 1014 10 16 0.00 0.00
1:51 pm 13:51 Cloudy 64 17.8 50 10 60 60 SSE 8 13 29.94 1014 10 16 0.00 0.00
2:51 pm 14:51 Cloudy 63 17.2 46 7.8 54 54 SSE 15 24 29.94 1014 10 16 0.00 0.00
3:51 pm 15:51 Partly Cloudy 63 17.2 45 7.2 52 52 SE 15 24 29.95 1014 10 16 0.00 0.00
4:51 pm 16:51 Cloudy 61 16.1 46 7.8 58 58 SE 10 17 29.96 1015 10 16 0.00 0.00
5:51 pm 17:51 Cloudy 59 15 44 6.7 58 58 ESE 9 15 29.98 1015 10 16 0.00 0.00
6:51 pm 18:51 Cloudy 56 13.3 44 6.7 65 65 SE 15 24 30.00 1016 10 16 0.00 0.00
7:51 pm 19:51 Cloudy with Light Rain 53 11.7 46 7.8 77 77 ESE 9 15 30.02 1017 9 14 0.02 0.51
8:51 pm 20:51 Cloudy with Light Rain 50 10 47 8.3 89 89 SE 14 22 30.05 1018 10 16 0.04 1.02
9:51 pm 21:51 Cloudy with Light Rain 49 9.4 47 8.3 93 93 ESE 10 17 30.07 1018 10 16 0.02 0.51
10:51 pm 22:51 Cloudy with Light Rain 50 10 44 6.7 80 80 ESE 15 24 30.07 1018 10 16 0.02 0.51
11:51 pm 23:51 Cloudy with Light Rain 48 8.9 44 6.7 86 86 ESE 10 17 30.08 1019 10 16 0.03 0.76

Powered by AerisWeather